Aérodrome :
LOGIN :

S'inscrire | Disclaimer

   EN    FR    IT 

 










Légende :    VFR   VFR Marginal   IFR   IFR Intensif   IFR Très Intensif
Visi : 
Plafond : 
>= 8 km
>= 3000ft
5 à 8 km
1000 à 3000 ft
1500m à 5 km
500 à 1000 ft
800 à 1500m
200 à 500 ft
< 800m
< 200 ft
Symboles :   Orages  Brouillard  Fortes neiges  Fortes précipitations  Vent > 20 kt
SIGMETs :   Divers  Orages  Givrage  Turbulence  Onde Orograph.  Cendres Volcan.






- Altitude de l'aérodrome : 41 ft


LIRE - Pratica di Mare Air Base Pomezia

DERNIER METAR :
  • 170155Z 02005KT CAVOK 01/M02 Q1019 RMK SKC VIS MIN 9999 WIND THR13 05005KT WIND THR31 /////KT BLU

METARs EXPIRÉS :
  • 170055Z 02006KT CAVOK 03/M02 Q1019 RMK SKC VIS MIN 9999 WIND THR13 03006KT WIND THR31 /////KT BLU
  • 162355Z 03008KT CAVOK 03/M02 Q1019 RMK SKC VIS MIN 9999 WIND THR13 03007KT WIND THR31 /////KT BLU

TAF TAF LIRE
Valide du 17 à 00h jusqu'au 17 à 09h UTC


162300Z 1700/1709 09007KT 9999 FEW015 BKN060
BECMG 1700/1702 01007KT CAVOK
BECMG 1706/1708 12012KT 7000 RA SCT015 BKN050



MET'MAP, la Météo Aéronautique d'un coup d'oeil ! - Copyright ORBIFLY Décembre 2007 - Disclaimer

ORBIFLY MET'MAP TEAM :

Programmation & Développement : Alexandra Zaïnal
Sur une idée originale de : Baudouin d'Aumeries
Assistance à la programmation : Marc-Olivier Méhu
Soutien technique & logistique : Manuel Goepfert

Contact : metmap@orbifly.com




SOURCES & CREDITS :

   NOAA